CARTOSAT-2F (43111 NORAD) Tracking and Keplerian Element Data

This shows tracking and keplerian element data for the satellite.

Feedback or suggestion? Click here.




ElementValue
Catalog43111
NameCARTOSAT-2F
Epoch Orbit12328
Epoch Day94.16385865
Epoch Year2020
RAAN155.4682
Inclination97.3934
Eccentricity0.0003584
Argument of Perigee344.0753
Mean Anonmoly39.055
Mean Motion15.19305442
Decay Rate2.83E-06
L11 43111U 18004A 20094.16385865 .00000283 00000-0 16566-4 0 9991
L22 43111 97.3934 155.4682 0003584 344.0753 39.0550 15.19305442123286

Live tracking and technical data element details for CARTOSAT-2F (NORAD 43111). CARTOSAT-2F can be tracked NOW for your location showing map with azimuth and elevation plus other details from your city location.

Track the satellite on the map from your city or location and see movement details for azimuth, elevation, latitude, longitude, range, height, and movement on the map or in text.







IsCatalogInMostPopularTable: catalog: 43111, numindb: 378
Update: records affected: 1



GetName: 43111 CARTOSAT-2F

Hit Count: updated at: Tue, 07 Apr 2020 23:37:56 GMT